Ithaca, NY

8:01 AM EST on February 19, 2017 (GMT -0500)
Tompkins County

Weather History for KITH - May, 2012

Change the Weather History Date:

Monday, May 14, 2012

  Actual Average Record
Temperature  
Mean Temperature 60 °F -  
Max Temperature 66 °F 65 °F 84 °F (1942)
Min Temperature 54 °F 40 °F 26 °F (2013)
Degree Days  
Heating Degree Days 5    
Growing Degree Days 10 (Base 50)    
Moisture  
Dew Point 55 °F    
Average Humidity 89    
Maximum Humidity 100    
Minimum Humidity 70    
Precipitation  
Precipitation 0.00 in - - ()
Sea Level Pressure  
Sea Level Pressure 30.10 in    
Wind  
Wind Speed 3 mph (SSE)    
Max Wind Speed 12 mph    
Max Gust Speed -    
Visibility 8 miles    
Events Rain    
Averages and records for this station are not official NWS values.
T = Trace of Precipitation, MM = Missing Value Source: NWS Daily Summary

Daily Weather History Graph

Daily Weather History Graph

Search for Another Location

Airport or City:

Trip Planner

Search our weather history database for the weather conditions in past years. The results will help you decide how hot, cold, wet, or windy it might be!

Date:

Astronomy

May. 14, 2012 Rise Set
Actual Time 5:44 AM EDT 8:20 PM EDT
Civil Twilight 5:12 AM EDT 8:52 PM EDT
Nautical Twilight 4:32 AM EDT 9:33 PM EDT
Astronomical Twilight 3:46 AM EDT 10:19 PM EDT
Moon 2:25 AM EDT (5/14) 2:32 PM EDT (5/14)
Length of Visible Light 15h 40m
Length of Day
14h 35m
Waning Crescent, 33% of the Moon is Illuminated
May 14
Waning Crescent
May 20
New
May 28
First Quarter
Jun 4
Full
Jun 11
Last Quarter

Hourly Weather History & Observations

Time (EDT) Temp. Dew Point Humidity Pressure Visibility Wind Dir Wind Speed Gust Speed Precip Events Conditions
12:56 AM 55.9 °F 52.0 °F 87% 30.12 in 10.0 mi Calm Calm - N/A   Overcast
1:56 AM 55.9 °F 52.9 °F 89% 30.11 in 10.0 mi Calm Calm - N/A   Overcast
2:56 AM 55.9 °F 52.9 °F 89% 30.11 in 10.0 mi Calm Calm - 0.00 in Rain Light Rain
3:56 AM 55.9 °F 54.0 °F 93% 30.11 in 10.0 mi East 3.5 mph - 0.00 in Rain Light Rain
4:56 AM 55.9 °F 54.9 °F 96% 30.11 in 9.0 mi Calm Calm - 0.00 in Rain Light Rain
6:11 AM 55.4 °F 55.4 °F 100% 30.12 in 4.0 mi Calm Calm - 0.00 in Rain Light Rain
6:56 AM 54.9 °F 54.9 °F 100% 30.13 in 4.0 mi SE 4.6 mph - 0.00 in Rain Light Rain
7:56 AM 55.9 °F 54.9 °F 96% 30.14 in 4.0 mi SSE 4.6 mph - 0.00 in Rain Light Rain
8:56 AM 55.9 °F 54.0 °F 93% 30.14 in 5.0 mi South 4.6 mph - 0.00 in   Overcast
9:25 AM 57.2 °F 55.4 °F 94% 30.14 in 4.0 mi South 3.5 mph - N/A   Overcast
9:56 AM 56.8 °F 54.9 °F 93% 30.14 in 4.0 mi South 3.5 mph - N/A   Overcast
10:56 AM 59.0 °F 54.9 °F 86% 30.14 in 10.0 mi SSE 3.5 mph - N/A   Overcast
11:56 AM 61.9 °F 55.9 °F 81% 30.13 in 10.0 mi SE 5.8 mph - N/A   Overcast
1:56 PM 63.0 °F 56.8 °F 80% 30.10 in 10.0 mi South 10.4 mph - N/A   Overcast
2:56 PM 63.9 °F 56.8 °F 78% 30.09 in 10.0 mi SSE 4.6 mph - N/A   Overcast
3:56 PM 66.9 °F 56.8 °F 70% 30.06 in 10.0 mi South 8.1 mph - N/A   Overcast
4:56 PM 64.9 °F 54.9 °F 70% 30.06 in 10.0 mi South 11.5 mph - N/A   Overcast
5:56 PM 63.9 °F 55.9 °F 75% 30.06 in 10.0 mi South 8.1 mph - N/A   Overcast
6:56 PM 61.9 °F 56.8 °F 84% 30.06 in 10.0 mi SSE 6.9 mph - 0.00 in   Overcast
7:56 PM 59.0 °F 56.8 °F 93% 30.06 in 7.0 mi SSE 5.8 mph - 0.00 in Rain Light Rain
8:56 PM 59.0 °F 56.8 °F 93% 30.07 in 7.0 mi SE 3.5 mph - 0.00 in Rain Light Rain
9:56 PM 57.9 °F 57.9 °F 100% 30.07 in 7.0 mi ESE 3.5 mph - 0.00 in Rain Light Rain
10:56 PM 57.9 °F 57.9 °F 100% 30.07 in 9.0 mi ESE 4.6 mph - 0.00 in Rain Light Rain